Location: Klein M�hlingen
(51.9472°N, 11.7453°E)
Time: 11:08:49
(UTC+00:00)

CZ-2C R/B - Pass Details

Date: 09 April 2020
Orbit: 705 x 907 km, 98.1° (Epoch: 25 May)

Event Time Altitude Azimuth Distance (km) Brightness Sun altitude
Rises 18:32:54 0° 162° (SSE) 3,143 5.8 -5.5°
Reaches altitude 10° 18:35:11 10° 162° (SSE) 2,207 5.0 -5.8°
Maximum altitude 18:40:00 87° 78° (ENE) 718 2.9 -6.5°
Drops below altitude 10° 18:44:47 10° 346° (NNW) 2,188 5.9 -7.2°
Sets 18:47:03 0° 346° (NNW) 3,115 6.7 -7.5°
